TimeCDT,TemperatureF,Dew PointF,Humidity,Sea Level PressureIn,VisibilityMPH,Wind Direction,Wind SpeedMPH,Gust SpeedMPH,PrecipitationIn,Events,Conditions,WindDirDegrees,DateUTC
12:56 AM,37.0,26.1,65,30.38,10.0,North,4.6,-,N/A,,Clear,360,2013-03-27 05:56:00
1:56 AM,35.1,26.1,70,30.38,10.0,North,4.6,-,N/A,,Clear,350,2013-03-27 06:56:00
2:56 AM,34.0,26.1,73,30.36,10.0,North,4.6,-,N/A,,Clear,360,2013-03-27 07:56:00
3:56 AM,33.1,26.1,75,30.37,10.0,Calm,Calm,-,N/A,,Clear,0,2013-03-27 08:56:00
4:56 AM,30.9,25.0,79,30.37,10.0,NNE,4.6,-,N/A,,Clear,20,2013-03-27 09:56:00
5:56 AM,30.9,25.0,79,30.39,10.0,Calm,Calm,-,N/A,,Clear,0,2013-03-27 10:56:00
6:56 AM,28.9,24.1,82,30.41,8.0,Calm,Calm,-,N/A,,Clear,0,2013-03-27 11:56:00
7:56 AM,37.0,30.0,76,30.42,8.0,Calm,Calm,-,N/A,,Clear,0,2013-03-27 12:56:00
8:56 AM,44.1,26.1,49,30.44,10.0,NE,8.1,-,N/A,,Clear,50,2013-03-27 13:56:00
9:56 AM,46.9,25.0,42,30.45,10.0,North,6.9,-,N/A,,Clear,10,2013-03-27 14:56:00
10:56 AM,48.2,24.8,40,30.45,10.0,Calm,Calm,-,N/A,,Partly Cloudy,0,2013-03-27 15:56:00
11:56 AM,51.8,23.0,33,30.43,10.0,Variable,3.5,-,N/A,,Partly Cloudy,0,2013-03-27 16:56:00
12:56 PM,55.4,23.0,29,30.40,10.0,Variable,4.6,-,N/A,,Partly Cloudy,0,2013-03-27 17:56:00
1:56 PM,59.0,24.8,27,30.36,10.0,North,6.9,-,N/A,,Partly Cloudy,350,2013-03-27 18:56:00
2:56 PM,57.9,23.0,26,30.33,10.0,Calm,Calm,-,N/A,,Scattered Clouds,0,2013-03-27 19:56:00
3:56 PM,61.0,24.1,24,30.31,10.0,East,3.5,-,N/A,,Scattered Clouds,100,2013-03-27 20:56:00
4:56 PM,61.0,21.9,22,30.30,10.0,Calm,Calm,-,N/A,,Scattered Clouds,0,2013-03-27 21:56:00
5:56 PM,60.1,21.9,23,30.29,10.0,SW,3.5,-,N/A,,Scattered Clouds,230,2013-03-27 22:56:00
6:56 PM,54.0,35.1,49,30.31,10.0,South,8.1,-,N/A,,Partly Cloudy,170,2013-03-27 23:56:00
7:56 PM,48.0,35.1,61,30.32,10.0,SSW,3.5,-,N/A,,Partly Cloudy,210,2013-03-28 00:56:00
8:56 PM,48.0,35.1,61,30.32,10.0,Calm,Calm,-,N/A,,Clear,0,2013-03-28 01:56:00
9:56 PM,41.0,35.1,79,30.32,10.0,WSW,3.5,-,N/A,,Partly Cloudy,250,2013-03-28 02:56:00
10:56 PM,39.0,35.1,86,30.32,10.0,WSW,3.5,-,N/A,,Clear,240,2013-03-28 03:56:00
11:56 PM,37.9,33.1,83,30.32,10.0,West,4.6,-,N/A,,Clear,260,2013-03-28 04:56:00